UAE848 FACT-VOBL

Flight info

Callsign UAE848
Flight time N/A
Altitude 35000
Route TETAN1A TETAN UZ39 BLV UZ36 TEVAP UG467 VL UW19 AVITO/N0482F370 UM307 NESAM/N0480F380 UM307 OTKIR/N0477F390 G465 MLE R457 TVM W43 UGABA UGABA7F
Aircraft B77L/H-SDE1E2E3FGHIJ2J3J4J5M1RWXY/LB1D1

Departure

Time 2026-05-06 10:55
Airport Cape Town International Airport (FACT)

Arrival

Time N/A
Airport Kempegowda International Airport Bengaluru (VOBL)
Time Latitude Longitude Altitude Speed Heading
2026-05-06 10:30 -33.96396 18.59619 159 ft 0 kts 260°
2026-05-06 10:48 -33.96395 18.59621 186 ft 2 kts 260°
2026-05-06 10:49 -33.96391 18.59651 159 ft 4 kts 260°
2026-05-06 10:49 -33.96387 18.59683 159 ft 4 kts 260°
2026-05-06 10:49 -33.96383 18.59710 159 ft 3 kts 261°
2026-05-06 10:49 -33.96383 18.59739 159 ft 4 kts 300°
2026-05-06 10:50 -33.96401 18.59756 159 ft 3 kts 350°
2026-05-06 10:50 -33.96426 18.59762 159 ft 4 kts 350°
2026-05-06 10:50 -33.96445 18.59765 159 ft 0 kts 350°
2026-05-06 10:52 -33.96413 18.59759 159 ft 10 kts 350°
2026-05-06 10:53 -33.96339 18.59743 159 ft 11 kts 350°
2026-05-06 10:53 -33.96265 18.59728 159 ft 11 kts 350°
2026-05-06 10:53 -33.96199 18.59756 158 ft 11 kts 44°
2026-05-06 10:53 -33.96144 18.59823 157 ft 11 kts 46°
2026-05-06 10:54 -33.96089 18.59892 158 ft 11 kts 46°
2026-05-06 10:54 -33.96043 18.59967 158 ft 11 kts 73°
2026-05-06 10:54 -33.96082 18.60035 158 ft 11 kts 161°
2026-05-06 10:54 -33.96257 18.60092 158 ft 53 kts 165°
2026-05-06 10:55 -33.96851 18.60280 161 ft 122 kts 165°
2026-05-06 10:55 -33.97852 18.60617 201 ft 171 kts 164°
2026-05-06 10:55 -33.99036 18.60942 620 ft 183 kts 165°
2026-05-06 10:55 -34.00326 18.61335 965 ft 201 kts 158°
2026-05-06 10:56 -34.01626 18.61900 1770 ft 199 kts 159°
2026-05-06 10:56 -34.02974 18.62447 2331 ft 209 kts 159°
2026-05-06 10:56 -34.04387 18.62987 2977 ft 217 kts 159°
2026-05-06 10:56 -34.05821 18.63652 3443 ft 226 kts 146°
2026-05-06 10:57 -34.06874 18.65070 3917 ft 236 kts 122°
2026-05-06 10:57 -34.07669 18.66863 4586 ft 241 kts 122°
2026-05-06 10:57 -34.08472 18.68626 5264 ft 246 kts 121°
2026-05-06 10:57 -34.09292 18.70481 6036 ft 249 kts 121°
2026-05-06 10:58 -34.10097 18.72305 6816 ft 250 kts 121°
2026-05-06 10:58 -34.10923 18.74178 7496 ft 256 kts 121°
2026-05-06 10:58 -34.11763 18.76081 8242 ft 259 kts 122°
2026-05-06 10:58 -34.12617 18.78014 8942 ft 264 kts 122°
2026-05-06 10:59 -34.13489 18.79988 9625 ft 269 kts 122°
2026-05-06 10:59 -34.14373 18.81993 10302 ft 273 kts 122°
2026-05-06 10:59 -34.15295 18.84077 10609 ft 293 kts 122°
2026-05-06 10:59 -34.16294 18.86333 10792 ft 316 kts 121°
2026-05-06 11:00 -34.17318 18.88782 10938 ft 337 kts 114°
2026-05-06 11:00 -34.17704 18.91666 11164 ft 364 kts 88°
2026-05-06 11:00 -34.16969 18.94665 11746 ft 381 kts 68°
2026-05-06 11:00 -34.15720 18.97508 12259 ft 385 kts 63°
2026-05-06 11:01 -34.13951 19.00011 12595 ft 403 kts 43°
2026-05-06 11:01 -34.11680 19.02030 13401 ft 408 kts 37°
2026-05-06 11:01 -34.09290 19.03894 14202 ft 410 kts 36°
2026-05-06 11:01 -34.06885 19.05772 14886 ft 413 kts 36°
2026-05-06 11:02 -34.04493 19.07720 15573 ft 416 kts 38°
2026-05-06 11:02 -34.02150 19.09707 16240 ft 420 kts 38°
2026-05-06 11:02 -33.99746 19.11805 16948 ft 423 kts 39°
2026-05-06 11:02 -33.97393 19.13889 17553 ft 428 kts 39°
2026-05-06 11:03 -33.95018 19.16106 17994 ft 436 kts 40°
2026-05-06 11:03 -33.92577 19.18340 18447 ft 443 kts 39°
2026-05-06 11:03 -33.90148 19.20584 18997 ft 440 kts 39°
2026-05-06 11:03 -33.87621 19.22692 19586 ft 442 kts 36°
2026-05-06 11:04 -33.85120 19.24841 20238 ft 442 kts 37°
2026-05-06 11:04 -33.82604 19.26959 20914 ft 441 kts 37°
2026-05-06 11:04 -33.80141 19.29183 21454 ft 444 kts 40°
2026-05-06 11:04 -33.77694 19.31459 22057 ft 447 kts 38°
2026-05-06 11:05 -33.75182 19.33704 22582 ft 451 kts 37°
2026-05-06 11:05 -33.72630 19.35901 23167 ft 453 kts 39°
2026-05-06 11:05 -33.70141 19.38242 23744 ft 453 kts 39°
2026-05-06 11:05 -33.67650 19.40585 24146 ft 457 kts 41°
2026-05-06 11:06 -33.65404 19.43286 24535 ft 460 kts 55°
2026-05-06 11:06 -33.63810 19.46608 24878 ft 461 kts 66°
2026-05-06 11:06 -33.62479 19.50099 25266 ft 461 kts 68°
2026-05-06 11:06 -33.61219 19.53628 25529 ft 461 kts 69°
2026-05-06 11:07 -33.59903 19.57174 25738 ft 469 kts 66°
2026-05-06 11:07 -33.58451 19.60675 26286 ft 469 kts 64°
2026-05-06 11:07 -33.56972 19.64158 26812 ft 470 kts 65°
2026-05-06 11:07 -33.55587 19.67720 27251 ft 473 kts 67°
2026-05-06 11:08 -33.54181 19.71311 27676 ft 477 kts 67°
2026-05-06 11:08 -33.52749 19.74911 28115 ft 480 kts 66°
2026-05-06 11:08 -33.51272 19.78506 28552 ft 483 kts 65°
2026-05-06 11:08 -33.49814 19.82135 28967 ft 484 kts 65°
2026-05-06 11:09 -33.48319 19.85762 29349 ft 487 kts 66°
2026-05-06 11:09 -33.46800 19.89392 29880 ft 485 kts 66°
2026-05-06 11:09 -33.45353 19.93013 30425 ft 482 kts 65°
2026-05-06 11:09 -33.43884 19.96551 30940 ft 479 kts 65°
2026-05-06 11:10 -33.42431 20.00128 31413 ft 477 kts 65°
2026-05-06 11:10 -33.40959 20.03691 31860 ft 477 kts 65°
2026-05-06 11:10 -33.39483 20.07233 32327 ft 475 kts 65°
2026-05-06 11:10 -33.38050 20.10763 32937 ft 470 kts 65°
2026-05-06 11:11 -33.36585 20.14255 33367 ft 469 kts 64°
2026-05-06 11:11 -33.35101 20.17705 33953 ft 464 kts 64°
2026-05-06 11:11 -33.33695 20.21181 34237 ft 465 kts 68°
2026-05-06 11:11 -33.32283 20.24667 34454 ft 468 kts 64°
2026-05-06 11:12 -33.30812 20.28160 34636 ft 471 kts 66°
2026-05-06 11:12 -33.29328 20.31656 34816 ft 473 kts 66°
2026-05-06 11:12 -33.27838 20.35180 34944 ft 475 kts 64°
2026-05-06 11:13 -33.24151 20.41838 35017 ft 489 kts 52°
2026-05-06 11:13 -33.19732 20.48069 35054 ft 492 kts 52°
2026-05-06 11:14 -33.15560 20.54361 35034 ft 481 kts 53°
2026-05-06 11:14 -33.11198 20.60444 35046 ft 484 kts 51°
2026-05-06 11:15 -33.06705 20.66498 35042 ft 491 kts 50°
2026-05-06 11:15 -33.02215 20.72651 35017 ft 494 kts 50°
2026-05-06 11:16 -32.97775 20.78885 34991 ft 492 kts 54°
2026-05-06 11:16 -32.93564 20.85255 35031 ft 488 kts 54°
2026-05-06 11:17 -32.89053 20.91341 34994 ft 491 kts 51°
2026-05-06 11:17 -32.84612 20.97488 35013 ft 490 kts 52°
2026-05-06 11:18 -32.80193 21.03683 34990 ft 493 kts 51°
2026-05-06 11:18 -32.75721 21.09896 34984 ft 496 kts 52°
2026-05-06 11:19 -32.71263 21.16168 34976 ft 498 kts 52°
2026-05-06 11:19 -32.66819 21.22480 34969 ft 498 kts 53°
2026-05-06 11:20 -32.62293 21.28721 34941 ft 498 kts 52°
2026-05-06 11:20 -32.57907 21.34967 34937 ft 493 kts 55°
2026-05-06 11:21 -32.53500 21.41210 34927 ft 495 kts 52°
2026-05-06 11:21 -32.48964 21.47306 34927 ft 495 kts 52°
2026-05-06 11:22 -32.44547 21.53587 34951 ft 502 kts 52°
2026-05-06 11:22 -32.39901 21.59811 34914 ft 504 kts 50°
2026-05-06 11:23 -32.35281 21.65930 34929 ft 494 kts 52°
2026-05-06 11:23 -32.30851 21.72146 34899 ft 492 kts 56°
2026-05-06 11:24 -32.26586 21.78506 34940 ft 498 kts 53°
2026-05-06 11:24 -32.21977 21.84762 34936 ft 511 kts 51°
2026-05-06 11:25 -32.17127 21.90921 34901 ft 511 kts 51°
2026-05-06 11:25 -32.12464 21.97223 34927 ft 508 kts 50°
2026-05-06 11:26 -32.07870 22.03527 34900 ft 507 kts 54°
2026-05-06 11:26 -32.03455 22.09945 34895 ft 508 kts 52°
2026-05-06 11:27 -31.98903 22.16311 34893 ft 509 kts 51°
2026-05-06 11:27 -31.94277 22.22587 34882 ft 507 kts 50°
2026-05-06 11:28 -31.89578 22.28778 34880 ft 507 kts 51°
2026-05-06 11:28 -31.84966 22.35074 34865 ft 512 kts 52°
2026-05-06 11:29 -31.80252 22.41401 34854 ft 515 kts 53°
2026-05-06 11:29 -31.75519 22.47746 34878 ft 516 kts 51°
2026-05-06 11:30 -31.70779 22.53986 34856 ft 505 kts 52°
2026-05-06 11:30 -31.66279 22.60249 34801 ft 501 kts 54°
2026-05-06 11:31 -31.61828 22.66521 34840 ft 503 kts 51°
2026-05-06 11:31 -31.57006 22.72608 34826 ft 515 kts 50°
2026-05-06 11:32 -31.52304 22.78923 34839 ft 522 kts 49°
2026-05-06 11:32 -31.47333 22.85205 34790 ft 528 kts 48°
2026-05-06 11:33 -31.42608 22.91752 34787 ft 523 kts 53°
2026-05-06 11:33 -31.37878 22.98126 34774 ft 513 kts 50°
2026-05-06 11:34 -31.33113 23.04286 34777 ft 513 kts 50°
2026-05-06 11:34 -31.28474 23.10705 34843 ft 521 kts 50°
2026-05-06 11:35 -31.23586 23.17097 34790 ft 531 kts 49°
2026-05-06 11:35 -31.18750 23.23585 34781 ft 527 kts 49°
2026-05-06 11:36 -31.13860 23.29885 34790 ft 521 kts 51°
2026-05-06 11:36 -31.09385 23.36461 34790 ft 512 kts 55°
2026-05-06 11:37 -31.04918 23.42903 34825 ft 519 kts 49°
2026-05-06 11:37 -30.99984 23.49126 34809 ft 523 kts 48°
2026-05-06 11:38 -30.95231 23.55522 34812 ft 521 kts 50°
2026-05-06 11:38 -30.90591 23.62011 34826 ft 522 kts 50°
2026-05-06 11:39 -30.86076 23.68566 34825 ft 516 kts 49°
2026-05-06 11:39 -30.81293 23.74798 34842 ft 518 kts 48°
2026-05-06 11:40 -30.76559 23.81157 34844 ft 522 kts 49°
2026-05-06 11:40 -30.71848 23.87607 34862 ft 525 kts 49°
2026-05-06 11:41 -30.67103 23.94089 34869 ft 528 kts 49°
2026-05-06 11:41 -30.62319 24.00583 34887 ft 529 kts 49°
2026-05-06 11:42 -30.57525 24.07068 34903 ft 529 kts 49°
2026-05-06 11:42 -30.53559 24.12415 34870 ft 522 kts 49°
2026-05-06 11:43 -30.48908 24.18837 34900 ft 520 kts 47°
2026-05-06 11:43 -30.44147 24.25166 34913 ft 522 kts 47°
2026-05-06 11:44 -30.36993 24.34714 34909 ft 524 kts 48°
2026-05-06 11:44 -30.32250 24.41131 34933 ft 523 kts 49°
2026-05-06 11:45 -30.27658 24.47600 34916 ft 519 kts 46°
2026-05-06 11:45 -30.22844 24.53812 34937 ft 519 kts 46°
2026-05-06 11:46 -30.18052 24.60057 34931 ft 520 kts 46°
2026-05-06 11:46 -30.13306 24.66367 34955 ft 521 kts 46°
2026-05-06 11:47 -30.08593 24.72659 34946 ft 522 kts 46°
2026-05-06 11:47 -30.03834 24.78992 34960 ft 522 kts 46°
2026-05-06 11:48 -29.99068 24.85316 34968 ft 522 kts 46°
2026-05-06 11:48 -29.94291 24.91641 34962 ft 522 kts 46°
2026-05-06 11:49 -29.89519 24.97951 34962 ft 522 kts 46°
2026-05-06 11:49 -29.84743 25.04257 34973 ft 522 kts 46°
2026-05-06 11:50 -29.79966 25.10555 34968 ft 522 kts 45°
2026-05-06 11:50 -29.75176 25.16860 34966 ft 523 kts 45°
2026-05-06 11:51 -29.70547 25.23335 34959 ft 527 kts 53°
2026-05-06 11:51 -29.66576 25.30441 34962 ft 529 kts 55°
2026-05-06 11:52 -29.62636 25.37594 34961 ft 529 kts 54°
2026-05-06 11:52 -29.58665 25.44707 34963 ft 528 kts 54°
2026-05-06 11:53 -29.54708 25.51729 34948 ft 527 kts 54°
2026-05-06 11:53 -29.50721 25.58785 34955 ft 526 kts 54°
2026-05-06 11:54 -29.46749 25.65824 34940 ft 525 kts 53°
2026-05-06 11:54 -29.42840 25.72843 34956 ft 519 kts 52°